This is the latest recevied weather packets stored in our database for station/object N1LJK-13. If no packets are shown the sender has not sent any weather packets the latest 10 day(s).
| Time | Temp. | Humidity | Pressure | Rain* | Wind** | Luminosity | Snow |
|---|---|---|---|---|---|---|---|
| 1777671931 | 16.11° C | 98% | 1009.1 hPa | 0 mm | - | - | - |
| 1777670730 | 16.67° C | 98% | 1008.9 hPa | 0 mm | - | - | - |
| 1777668331 | 16.11° C | 98% | 1008.7 hPa | 0 mm | - | - | - |
| 1777667131 | 17.22° C | 98% | 1008.6 hPa | 0 mm | - | - | - |
| 1777665931 | 17.22° C | 98% | 1008.4 hPa | 0 mm | - | - | - |
| 1777664730 | 18.33° C | 98% | 1008.2 hPa | 0 mm | - | - | - |
| 1777663531 | 18.89° C | 98% | 1008.2 hPa | 0 mm | - | - | - |
| 1777662330 | 20.56° C | 98% | 1008.3 hPa | 0 mm | - | - | - |
| 1777661130 | 20.56° C | 98% | 1008.2 hPa | 0 mm | - | - | - |
| 1777659930 | 20° C | 98% | 1008.2 hPa | 0 mm | - | - | - |
| 1777658731 | 20° C | 98% | 1008.3 hPa | 0 mm | - | - | - |
| 1777657531 | 19.44° C | 98% | 1008.5 hPa | 0 mm | - | - | - |
| 1777656330 | 17.78° C | 98% | 1008.6 hPa | 0 mm | - | - | - |
| 1777655130 | 16.67° C | 98% | 1008.9 hPa | 0 mm | - | - | - |
| 1777653931 | 17.22° C | 98% | 1008.8 hPa | 0 mm | - | - | - |
| 1777652731 | 17.78° C | 98% | 1008.9 hPa | 0 mm | - | - | - |
| 1777651530 | 18.33° C | 98% | 1009.1 hPa | 0 mm | - | - | - |
| 1777650331 | 18.33° C | 98% | 1009.1 hPa | 0 mm | - | - | - |
| 1777647931 | 18.89° C | 98% | 1009.2 hPa | 0 mm | - | - | - |
| 1777646730 | 18.33° C | 98% | 1009.3 hPa | 0 mm | - | - | - |
| 1777645531 | 17.78° C | 98% | 1009.4 hPa | 0 mm | - | - | - |
| 1777644331 | 16.11° C | 98% | 1009.4 hPa | 0 mm | - | - | - |
| 1777643131 | 15° C | 98% | 1009.4 hPa | 0 mm | - | - | - |
| 1777641930 | 15.56° C | 98% | 1009.3 hPa | 0 mm | - | - | - |
| 1777640730 | 13.33° C | 98% | 1009.2 hPa | 0 mm | - | - | - |
* Rain latest hour (hover to see other rain measurements)
** Current wind speed in m/s (hover to see current wind gust speed)